CZ-2F DEB (46392 NORAD) Tracking and Keplerian Element Data

This shows tracking and keplerian element data for the satellite.

Feedback or suggestion? Click here.




ElementValue
Catalog46392
NameCZ-2F DEB
Epoch Orbit455
Epoch Day277.70722023
Epoch Year2020
RAAN275.473
Inclination49.8687
Eccentricity0.0105208
Argument of Perigee278.1279
Mean Anonmoly80.7693
Mean Motion15.51602413
Decay Rate0.00092998
L11 46392U 20063D 20277.70722023 .00092998 00000-0 12070-2 0 9995
L22 46392 49.8687 275.4730 0105208 278.1279 80.7693 15.51602413 4553



Live tracking and technical data element details for CZ-2F DEB (NORAD 46392). CZ-2F DEB can be tracked NOW for your location showing map with azimuth and elevation plus other details from your city location.







IsCatalogInMostPopularTable: catalog: 46392, numindb: 149
Update: records affected: 1



GetName: 46392 CZ-2F DEB

Hit Count: updated at: Sun, 11 Jun 2023 00:46:49 GMT